TimeCST,TemperatureF,Dew PointF,Humidity,Sea Level PressureIn,VisibilityMPH,Wind Direction,Wind SpeedMPH,Gust SpeedMPH,PrecipitationIn,Events,Conditions,WindDirDegrees,DateUTC
12:50 AM,60.8,57.2,88,30.21,10.0,Calm,Calm,-,N/A,,Partly Cloudy,0,2012-11-21 06:50:00
1:50 AM,59.0,55.4,88,30.21,10.0,Calm,Calm,-,N/A,,Partly Cloudy,0,2012-11-21 07:50:00
2:50 AM,59.0,55.4,88,30.22,10.0,Calm,Calm,-,N/A,,Partly Cloudy,0,2012-11-21 08:50:00
3:50 AM,57.2,55.4,94,30.22,10.0,Calm,Calm,-,N/A,,Partly Cloudy,0,2012-11-21 09:50:00
4:50 AM,57.2,55.4,94,30.22,8.0,Calm,Calm,-,N/A,,Partly Cloudy,0,2012-11-21 10:50:00
5:50 AM,57.2,55.4,94,30.23,8.0,Calm,Calm,-,N/A,,Partly Cloudy,0,2012-11-21 11:50:00
6:50 AM,57.2,55.4,94,30.24,8.0,Calm,Calm,-,N/A,Fog,Shallow Fog,0,2012-11-21 12:50:00
7:50 AM,59.0,57.2,94,30.26,7.0,Calm,Calm,-,N/A,Fog,Shallow Fog,0,2012-11-21 13:50:00
8:50 AM,62.6,60.8,94,30.29,5.0,NNW,4.6,-,N/A,,Haze,340,2012-11-21 14:50:00
9:50 AM,68.0,62.6,83,30.28,7.0,NW,4.6,-,N/A,,Scattered Clouds,310,2012-11-21 15:50:00
10:50 AM,71.6,59.0,64,30.28,10.0,WNW,6.9,-,N/A,,Scattered Clouds,300,2012-11-21 16:50:00
11:50 AM,75.2,57.2,53,30.24,10.0,NW,4.6,-,N/A,,Scattered Clouds,310,2012-11-21 17:50:00
12:50 PM,77.0,53.6,44,30.21,10.0,NE,4.6,-,N/A,,Scattered Clouds,40,2012-11-21 18:50:00
1:50 PM,80.6,55.4,42,30.21,10.0,NE,4.6,-,N/A,,Scattered Clouds,40,2012-11-21 19:50:00
2:50 PM,86.0,59.0,40,30.17,10.0,SE,4.6,-,N/A,,Mostly Cloudy,130,2012-11-21 20:50:00
3:55 PM,84.2,57.2,40,30.16,10.0,SE,4.6,-,N/A,,Mostly Cloudy,130,2012-11-21 21:55:00
4:50 PM,80.6,51.8,37,30.18,10.0,SE,3.5,-,N/A,,Mostly Cloudy,140,2012-11-21 22:50:00
5:50 PM,75.2,46.4,36,30.16,10.0,South,3.5,-,N/A,,Mostly Cloudy,190,2012-11-21 23:50:00
6:50 PM,69.8,55.4,60,30.18,10.0,Calm,Calm,-,N/A,,Mostly Cloudy,0,2012-11-22 00:50:00
7:50 PM,68.0,55.4,64,30.19,10.0,South,3.5,-,N/A,,Mostly Cloudy,170,2012-11-22 01:50:00
8:50 PM,66.2,55.4,68,30.22,10.0,SSW,3.5,-,N/A,,Scattered Clouds,200,2012-11-22 02:50:00
9:50 PM,66.2,59.0,78,30.22,10.0,Calm,Calm,-,N/A,,Scattered Clouds,0,2012-11-22 03:50:00
10:50 PM,64.4,57.2,77,30.21,10.0,Calm,Calm,-,N/A,,Partly Cloudy,0,2012-11-22 04:50:00
11:50 PM,62.6,55.4,77,30.19,10.0,Calm,Calm,-,N/A,,Partly Cloudy,0,2012-11-22 05:50:00